This is the latest recevied weather packets stored in our database for station/object SP1BMW-13. If no packets are shown the sender has not sent any weather packets the latest 10 day(s).
| Time | Temp. | Humidity | Pressure | Rain* | Wind** | Luminosity | Snow |
|---|---|---|---|---|---|---|---|
| 1777633522 | 22.22° C | 38% | 1026.9 hPa | 0 mm | 0 m/s | 686 W/m² | - |
| 1777633462 | 22.22° C | 37% | 1027 hPa | 0 mm | 0.89 m/s, 297° | 687 W/m² | - |
| 1777633402 | 22.22° C | 40% | 1027 hPa | 0 mm | 0.45 m/s, 313° | 682 W/m² | - |
| 1777633341 | 22.78° C | 41% | 1026.8 hPa | 0 mm | 0.45 m/s, 1° | 681 W/m² | - |
| 1777633282 | 22.78° C | 38% | 1027 hPa | 0 mm | 0.45 m/s, 353° | 682 W/m² | - |
| 1777633222 | 22.78° C | 37% | 1026.9 hPa | 0 mm | 0.89 m/s, 356° | 683 W/m² | - |
| 1777633161 | 22.78° C | 36% | 1026.9 hPa | 0 mm | 0 m/s | 685 W/m² | - |
| 1777633101 | 22.22° C | 39% | 1027.1 hPa | 0 mm | 1.34 m/s, 319° | 683 W/m² | - |
| 1777633041 | 22.22° C | 42% | 1027.1 hPa | 0 mm | 0.45 m/s, 341° | 683 W/m² | - |
| 1777632982 | 22.22° C | 41% | 1027 hPa | 0 mm | 0 m/s | 684 W/m² | - |
| 1777632921 | 22.22° C | 37% | 1027.1 hPa | 0 mm | 0 m/s | 683 W/m² | - |
| 1777632862 | 22.22° C | 37% | 1027.2 hPa | 0 mm | 1.34 m/s, 307° | 683 W/m² | - |
| 1777632801 | 21.67° C | 38% | 1027.1 hPa | 0 mm | 0.89 m/s, 277° | 682 W/m² | - |
| 1777632741 | 21.67° C | 38% | 1027.1 hPa | 0 mm | 0.45 m/s, 108° | 682 W/m² | - |
| 1777632681 | 21.67° C | 40% | 1027.1 hPa | 0 mm | 0 m/s | 681 W/m² | - |
| 1777632622 | 21.67° C | 39% | 1026.9 hPa | 0 mm | 2.68 m/s, 333° | 681 W/m² | - |
| 1777632561 | 21.67° C | 40% | 1026.9 hPa | 0 mm | 0.45 m/s, 341° | 680 W/m² | - |
| 1777632501 | 21.67° C | 38% | 1027.1 hPa | 0 mm | 0.89 m/s, 30° | 679 W/m² | - |
| 1777632441 | 21.67° C | 40% | 1027.1 hPa | 0 mm | 0.45 m/s, 15° | 678 W/m² | - |
| 1777632381 | 21.67° C | 39% | 1027 hPa | 0 mm | 1.79 m/s, 21° | 679 W/m² | - |
| 1777632321 | 21.67° C | 40% | 1027 hPa | 0 mm | 0.89 m/s, 5° | 679 W/m² | - |
| 1777632261 | 21.67° C | 40% | 1027 hPa | 0 mm | 0.89 m/s, 33° | 678 W/m² | - |
| 1777632201 | 21.67° C | 40% | 1027.1 hPa | 0 mm | 3.13 m/s, 344° | 678 W/m² | - |
| 1777632141 | 21.11° C | 41% | 1026.9 hPa | 0 mm | 0.89 m/s, 35° | 679 W/m² | - |
| 1777632081 | 21.11° C | 43% | 1027.2 hPa | 0 mm | 0 m/s | 678 W/m² | - |
* Rain latest hour (hover to see other rain measurements)
** Current wind speed in m/s (hover to see current wind gust speed)